Wind_Speed
12 11 13 15 15 18 20 20 18 18 18 16 14 14 15 15 12 12 14 12 14 13 14 16 16 15 14 15 15 16 15 14 14 12 12 13 14 14 14 15 15 13 12 16 23 28 28 27 27 26 26 27 26 25 26 26 27 26 25 25 23 23 25 25 24 24 23 22 19 18 17 17 17 16 15 15 15 15 14 14 14 14 14 13 13 12
13 13 16 18 19 19 20 20 19 19 20 18 13 12 13 14 13 13 15 13 12 9 11 12 15 16 16 16 16 16 15 15 15 14 13 14 14 14 15 16 15 13 12 17 21 25 28 27 27 27 26 28 28 27 27 28 28 27 26 26 25 24 25 26 25 25 24 22 20 19 18 18 17 17 17 16 16 15 15 15 15 15 14 14 14 13
14 15 18 20 19 18 18 19 21 20 20 17 12 11 11 11 12 13 16 17 13 8 9 13 14 15 16 16 14 13 13 14 15 15 14 14 14 14 16 16 14 12 13 17 19 23 27 28 28 27 26 28 29 28 28 28 28 28 27 27 25 25 25 26 26 25 24 22 20 19 18 18 17 17 17 16 15 15 15 16 16 15 15 15 15 14
12 14 19 20 18 20 19 19 21 19 16 15 12 11 12 11 12 11 13 17 14 8 9 15 14 13 14 14 14 15 15 15 16 16 14 13 14 15 15 15 15 15 15 18 20 22 24 27 29 27 26 28 29 28 29 29 29 29 28 28 27 26 25 25 26 25 23 21 20 18 17 17 16 15 16 16 15 16 16 16 17 16 16 16 15 15
14 13 17 21 19 20 20 18 19 15 12 16 17 14 13 14 15 13 12 15 15 13 12 14 12 11 13 15 15 15 16 14 14 16 15 13 15 16 15 16 16 17 17 18 21 23 23 25 28 28 27 28 29 29 30 31 30 29 29 30 28 27 26 25 26 25 23 21 21 19 17 17 16 14 16 17 16 17 17 17 17 18 17 17 16 15
16 13 14 21 21 20 20 17 17 15 11 14 19 19 17 16 18 16 15 15 13 12 13 14 12 10 13 16 15 13 15 16 15 16 17 15 14 17 16 17 18 19 19 19 21 22 23 23 27 28 28 28 29 30 31 31 31 30 30 30 29 27 26 26 26 26 24 22 22 22 20 18 18 17 16 18 18 17 18 18 17 17 17 17 17 16
14 16 15 18 21 21 20 17 18 18 12 10 15 20 20 19 19 17 17 15 10 9 11 14 12 9 11 16 17 17 17 18 18 18 18 16 14 16 17 18 19 20 19 19 20 21 22 24 25 27 29 30 30 30 31 31 31 30 30 31 31 28 27 26 26 27 25 23 23 23 22 20 19 18 17 17 17 17 17 17 17 17 17 17 17 17
14 21 18 17 19 19 17 14 17 18 13 10 12 16 20 21 21 18 17 14 10 9 11 14 15 11 10 13 16 19 19 21 20 18 17 15 15 16 17 18 20 20 21 20 20 22 23 24 26 29 31 31 30 30 31 31 32 32 31 32 32 29 28 27 27 28 27 24 24 24 23 21 19 18 17 16 17 16 15 16 16 17 16 17 17 17
17 21 20 19 17 14 15 16 17 18 15 11 11 13 15 18 21 20 16 12 10 10 10 14 15 11 10 10 12 15 18 21 19 17 15 14 15 16 16 18 20 21 22 21 21 22 23 24 29 32 33 32 31 31 32 32 32 33 32 32 32 30 29 28 28 29 28 25 24 24 23 21 19 18 17 16 16 16 15 16 16 16 16 17 17 17
15 18 20 19 16 13 16 17 17 18 15 13 13 13 11 11 15 16 15 12 11 12 12 15 16 12 9 9 11 14 16 16 14 14 15 16 16 14 13 16 18 18 18 19 21 21 22 26 31 33 32 32 31 31 31 31 31 32 32 32 33 32 30 29 29 30 29 27 25 24 24 22 20 18 17 16 16 17 16 16 16 16 16 16 17 17
14 15 17 17 14 14 15 16 17 18 16 14 14 12 8 7 9 10 11 11 11 13 15 18 20 15 11 10 11 13 14 14 12 12 15 17 17 14 13 16 17 17 16 18 20 20 22 26 30 31 31 32 31 30 30 30 31 32 32 32 34 33 31 30 30 30 30 29 26 25 25 24 22 20 19 17 17 18 18 18 17 17 17 16 16 17
18 15 14 14 15 15 14 14 16 17 17 15 13 10 8 8 8 8 9 10 11 12 14 19 21 19 14 10 10 12 16 18 16 15 17 19 18 17 16 17 17 16 16 17 18 18 20 22 25 28 30 32 31 31 31 31 31 32 33 33 34 34 32 30 31 31 31 30 28 26 25 25 24 22 21 20 19 18 18 18 18 17 17 16 16 16
18 16 14 15 17 18 15 13 13 14 15 14 11 11 10 8 8 9 9 10 12 11 12 16 18 17 15 11 12 14 15 18 17 15 18 20 21 19 19 19 16 16 17 17 17 17 18 19 21 24 28 31 32 32 33 33 32 32 33 34 35 34 33 32 31 32 32 31 30 28 26 25 25 24 23 22 21 19 19 18 18 18 18 18 17 17
13 16 19 17 15 18 18 12 11 12 13 14 12 11 10 9 9 10 10 10 11 11 13 16 15 14 13 12 15 19 16 15 16 16 17 20 22 21 19 19 17 17 18 17 17 17 18 19 19 21 27 30 32 34 35 34 33 32 33 35 35 35 34 33 32 33 33 32 31 29 27 25 25 25 25 24 22 21 20 19 19 19 19 19 19 19
14 14 18 19 13 17 21 16 13 12 12 14 13 11 11 9 9 9 9 10 9 9 13 16 14 11 11 8 12 19 19 16 15 15 17 17 18 20 18 17 17 17 17 16 17 18 19 20 21 22 27 30 32 35 35 35 34 33 33 35 36 35 35 34 33 33 33 33 32 30 28 27 26 25 25 24 23 23 22 21 20 20 20 19 19 19
18 14 16 21 16 18 23 19 16 14 12 12 12 12 12 11 9 7 7 9 9 8 10 12 10 9 9 7 6 11 16 19 16 14 15 15 15 18 18 16 15 15 16 17 17 19 20 21 21 24 28 30 32 34 35 35 35 34 33 35 36 36 36 35 34 34 33 32 31 30 30 28 27 25 25 25 25 24 23 22 21 21 21 20 19 19
14 12 15 23 22 21 22 21 20 16 10 10 13 13 12 13 11 7 7 8 8 8 8 9 10 9 8 8 8 8 11 17 19 17 15 15 16 17 17 16 15 15 16 17 17 18 19 20 21 25 28 30 32 34 36 37 37 36 35 35 36 36 36 36 35 34 33 32 31 31 31 30 28 27 27 26 26 25 24 23 22 21 21 21 21 19
11 10 14 23 25 22 20 22 23 20 13 9 12 14 12 12 11 8 7 7 8 8 7 8 12 11 9 7 9 13 14 14 19 21 19 17 17 17 17 17 17 17 16 18 19 19 19 20 21 24 28 31 33 34 36 37 37 36 35 36 37 36 36 37 36 35 34 33 32 32 32 31 30 29 28 27 26 25 24 24 24 23 22 22 22 21
10 9 12 21 24 20 18 19 19 20 21 14 10 13 12 11 11 9 8 8 9 8 7 9 11 10 9 8 8 14 17 16 16 18 20 20 19 17 17 19 21 20 17 17 18 17 18 19 21 25 29 33 34 35 35 35 35 34 34 35 37 38 38 38 36 34 33 34 32 32 33 33 32 30 29 28 26 25 26 26 25 24 23 22 21 22
11 8 9 18 23 19 15 15 15 17 21 18 12 12 12 10 10 10 8 7 8 7 7 9 10 9 9 10 11 11 13 16 16 15 16 18 18 17 16 17 19 19 17 16 17 17 19 21 23 27 31 33 34 34 34 34 35 35 35 35 36 37 37 37 36 34 34 34 33 32 32 33 33 31 30 29 28 27 27 28 26 25 24 23 22 22
10 8 9 13 21 18 13 14 16 16 17 16 13 12 12 10 8 9 10 8 8 7 6 7 8 6 5 8 10 10 10 12 14 15 14 15 16 17 16 15 16 16 15 15 16 17 19 21 23 28 31 30 30 31 32 34 35 35 34 34 35 36 36 36 36 35 35 35 35 33 33 33 33 33 31 30 29 29 28 27 27 26 24 23 23 23
8 7 10 10 15 15 15 17 20 20 19 16 14 13 13 12 10 10 10 10 9 8 6 6 6 2 4 3 4 7 9 9 10 12 13 14 15 15 15 16 15 15 15 15 16 17 18 18 20 24 26 27 28 30 32 33 34 35 35 35 35 35 36 37 38 37 36 36 35 35 34 34 34 32 32 31 30 30 29 27 27 27 25 24 24 24
4 4 10 10 12 14 17 19 20 22 22 19 16 14 13 12 12 10 9 9 9 10 8 7 6 1 7 6 4 4 5 7 8 9 9 12 13 13 14 16 16 15 15 15 16 15 15 16 16 19 23 25 27 29 31 32 32 34 36 35 35 36 37 38 38 37 36 35 35 35 34 34 33 32 32 32 31 31 30 29 27 27 26 26 25 24
1 4 9 9 10 13 16 18 19 20 21 18 17 16 14 14 14 11 9 7 8 10 9 7 7 4 8 8 5 4 2 5 8 9 9 9 10 10 12 13 14 15 14 15 15 14 14 15 15 15 18 20 22 26 29 30 31 33 34 35 36 37 38 37 37 36 35 35 35 35 35 34 34 33 33 33 32 31 31 30 28 27 28 27 26 25
2 9 10 8 9 12 13 14 16 18 18 13 14 18 19 19 19 14 10 8 7 10 11 9 7 4 7 7 5 6 7 6 7 10 10 8 9 10 11 10 8 10 11 11 11 11 12 13 13 13 13 15 20 25 27 29 31 31 33 35 36 36 36 36 35 35 35 35 35 35 36 35 35 34 35 34 33 33 33 31 30 28 28 29 28 27
5 9 10 9 12 13 12 11 11 14 15 12 15 22 23 24 23 16 10 9 8 9 11 9 5 5 9 8 6 6 6 4 5 8 9 9 8 8 8 8 7 8 8 9 9 10 10 10 12 13 13 15 22 25 25 27 29 30 31 33 33 33 34 34 34 34 34 34 34 35 36 36 36 35 35 35 34 33 34 33 32 30 29 29 29 29
6 7 11 15 15 8 3 2 4 7 14 17 19 23 24 25 25 17 11 11 9 8 9 9 5 6 11 9 6 6 7 6 5 6 8 8 7 6 7 7 7 7 8 9 9 9 9 9 12 14 14 16 21 23 24 25 27 28 29 31 31 31 31 33 33 34 33 33 33 34 35 36 36 35 35 35 35 34 33 33 33 32 30 29 29 29
6 8 12 18 19 10 3 7 10 6 12 19 22 24 23 24 26 21 15 12 10 8 9 10 10 7 8 10 9 9 9 8 6 6 8 9 7 6 7 6 7 8 8 9 9 9 10 10 11 13 13 15 18 21 23 24 26 27 27 28 30 30 30 31 32 32 32 32 32 33 34 35 35 35 35 35 35 35 33 33 33 33 31 29 29 29
6 8 10 17 21 15 7 6 9 9 8 10 15 22 25 25 26 25 21 17 14 10 8 10 13 12 7 10 11 9 8 8 7 5 7 9 7 7 6 6 8 10 9 9 10 10 10 10 10 11 13 14 16 19 22 23 24 26 26 27 28 29 29 30 31 31 31 31 31 32 31 32 32 33 34 34 33 34 35 34 33 32 31 30 29 29
3 4 5 10 16 16 11 8 9 10 8 7 10 17 23 25 26 24 22 21 18 14 11 9 13 15 12 8 10 11 8 5 3 1 3 6 7 8 6 6 8 12 11 10 10 10 10 10 10 11 12 13 14 17 20 21 22 24 25 26 27 28 28 28 29 31 31 31 31 30 29 30 30 30 31 32 32 32 34 33 32 31 31 31 30 28
4 2 6 7 10 13 12 10 9 10 8 8 10 11 13 19 23 23 22 21 18 16 15 12 10 10 10 9 7 7 5 2 3 4 5 5 3 3 4 5 4 7 9 9 10 10 9 9 10 11 12 13 15 17 20 21 22 23 24 25 27 28 28 28 28 30 31 30 29 28 28 29 29 29 29 30 30 30 31 32 31 31 31 31 30 29
6 4 4 5 7 9 11 12 12 10 9 12 14 11 10 13 16 16 15 16 16 16 17 16 11 7 7 8 8 7 5 5 6 7 8 7 5 5 6 6 5 4 3 3 4 6 7 8 9 11 13 14 16 19 21 21 22 23 24 25 26 27 28 29 28 29 30 29 27 27 28 28 28 27 28 28 28 28 28 29 29 29 29 29 30 29
5 5 4 5 6 8 12 14 12 10 10 13 13 12 13 12 11 10 10 10 11 11 11 11 8 4 4 5 6 7 7 7 8 8 7 6 5 6 7 8 7 7 7 6 4 5 7 7 7 9 10 10 14 19 21 22 22 23 24 25 25 26 29 30 29 28 29 29 28 28 29 29 28 28 28 28 27 26 25 27 28 28 28 28 28 28
6 6 4 3 4 8 10 8 8 12 13 9 7 10 15 14 13 12 12 12 11 10 8 7 6 5 4 5 6 7 7 7 6 6 6 6 6 7 8 9 9 8 8 7 7 7 6 3 2 3 5 7 11 14 18 21 23 22 23 23 25 27 29 29 29 28 28 29 29 29 29 29 29 29 28 27 27 26 26 26 27 28 27 26 27 28
8 7 6 3 4 6 7 7 7 12 11 7 5 9 13 16 18 17 15 15 15 14 13 12 11 10 8 6 6 6 6 6 5 5 7 8 8 8 9 9 8 8 8 7 7 6 4 2 2 3 4 5 8 10 13 17 20 20 21 23 25 27 27 28 28 27 28 29 30 29 29 29 29 28 27 27 27 28 28 27 27 28 27 26 26 27
8 7 7 5 5 6 5 8 8 5 3 4 6 5 4 10 16 18 17 18 18 16 15 14 14 13 12 10 8 6 5 5 5 6 8 9 10 10 11 10 9 8 8 8 6 3 2 0 2 4 4 4 5 8 10 14 17 19 21 23 25 26 27 27 27 27 27 29 29 29 28 28 27 25 25 26 26 28 28 28 27 27 26 26 25 25
9 7 6 7 7 6 6 9 8 4 2 5 8 5 1 5 11 12 13 15 16 16 14 12 13 13 13 12 11 9 9 9 8 8 10 12 12 12 12 12 11 11 10 7 4 2 2 1 3 5 5 6 7 9 10 11 15 19 21 22 24 25 26 27 27 28 28 28 28 28 27 27 26 26 26 26 27 28 28 28 26 25 26 26 25 24
11 9 8 8 8 8 8 9 10 10 7 7 8 7 4 3 4 5 7 9 11 14 13 11 9 8 8 9 8 7 8 8 7 6 8 9 9 10 13 14 11 8 5 4 4 4 3 3 3 5 6 8 10 10 11 11 14 17 19 21 23 24 25 26 28 29 28 26 26 27 27 27 27 27 27 27 28 28 27 26 25 25 25 26 26 26
13 10 8 9 8 9 10 9 10 10 6 5 7 10 8 4 2 3 6 7 6 7 8 8 8 7 6 6 5 5 4 5 6 3 2 4 7 10 9 4 0 4 6 5 5 5 6 5 5 6 8 10 12 11 11 12 14 16 18 20 22 23 25 26 27 27 27 25 24 26 26 26 27 27 27 27 27 26 25 24 24 24 24 25 25 25
14 10 8 10 10 10 11 10 8 8 5 2 3 6 7 5 4 6 8 6 5 5 4 3 5 4 2 3 3 5 6 7 7 3 7 8 8 10 11 9 8 7 6 5 6 7 7 7 7 7 9 9 10 11 12 13 14 16 18 19 21 22 23 24 24 24 24 24 23 24 25 25 26 26 26 26 25 24 24 23 23 23 23 23 23 22
11 9 9 10 10 11 12 11 9 7 6 3 2 5 4 4 6 8 5 3 5 5 5 2 1 2 4 3 2 4 5 6 9 8 9 10 8 7 8 8 7 5 5 6 6 7 8 8 7 7 8 6 6 8 11 14 14 15 17 18 19 20 21 21 21 22 23 23 23 23 24 24 25 25 24 24 23 23 23 22 22 22 22 21 21 21
12 10 10 10 10 10 11 11 10 8 6 5 4 6 7 6 5 2 1 1 2 4 5 3 3 5 5 5 4 4 6 8 11 12 11 10 8 7 7 6 5 5 5 5 5 5 7 7 5 5 6 5 5 8 10 12 13 14 15 16 17 18 18 18 20 21 22 23 22 22 23 23 23 23 23 22 22 22 22 21 20 20 20 20 19 19
8 10 10 10 9 8 9 11 11 7 4 4 6 7 8 5 1 4 4 3 1 3 4 3 4 5 5 6 6 6 8 10 12 12 11 10 8 7 7 6 5 5 5 5 5 5 5 6 4 4 5 5 4 6 8 11 12 13 14 14 15 15 16 16 18 20 20 21 21 21 21 21 21 21 20 20 21 20 19 19 19 19 19 19 18 18
6 8 8 8 8 8 10 10 6 1 1 1 4 3 1 3 6 7 6 5 4 4 4 4 5 5 5 6 7 7 8 9 10 11 10 8 7 7 7 6 6 6 6 6 5 5 5 4 3 2 3 5 4 4 6 9 10 11 12 12 13 14 15 15 16 17 18 18 19 19 19 19 19 19 18 18 19 19 18 18 18 18 18 18 18 18
4 4 4 4 5 6 7 5 3 4 3 3 4 4 6 8 8 8 7 6 6 6 5 6 7 7 6 7 8 7 8 8 9 10 9 8 8 7 6 6 7 7 7 6 5 5 5 3 2 1 1 3 3 1 4 7 9 11 11 10 10 12 13 13 14 16 16 16 16 17 17 17 18 17 17 17 18 19 18 18 18 17 17 17 17 17
3 3 4 4 6 8 8 7 7 6 5 6 8 8 8 8 8 9 9 7 7 9 9 8 9 9 10 9 9 8 7 8 9 10 9 8 9 7 6 7 7 7 7 6 3 3 3 1 0 2 3 3 2 2 3 4 6 9 9 8 9 10 11 12 13 14 14 14 15 15 16 16 16 16 16 15 15 15 15 16 16 16 15 16 16 16
7 7 7 7 7 7 6 6 7 7 7 9 10 11 11 9 9 9 9 8 9 11 12 11 12 12 12 11 11 10 9 9 9 9 7 7 8 8 7 7 7 6 6 3 1 2 1 1 2 3 5 5 4 4 5 5 6 7 7 7 8 9 10 10 11 12 13 13 14 15 15 15 15 15 14 14 14 14 14 15 15 15 15 15 16 15
4 3 7 11 11 9 9 11 11 11 13 13 11 10 10 10 10 10 11 11 12 12 13 13 13 11 11 12 12 12 11 11 10 8 7 7 7 7 6 6 6 6 4 2 1 1 1 3 4 5 7 7 7 6 6 6 6 6 6 7 8 9 9 10 11 11 12 12 12 13 14 13 13 13 14 14 13 11 11 13 15 15 14 13 13 13
4 2 6 10 12 11 12 14 13 13 15 15 14 13 12 10 10 11 12 13 13 14 14 15 14 13 11 12 12 12 12 12 10 8 8 6 5 6 6 5 5 4 3 1 1 3 5 5 5 6 8 8 8 7 7 7 7 7 7 6 6 8 10 10 10 11 12 11 11 12 12 12 12 12 12 14 12 8 7 5 7 9 8 6 5 5
9 9 9 9 10 11 12 12 12 11 11 11 11 12 11 10 11 12 12 12 12 13 13 15 16 16 14 12 12 12 12 11 9 8 7 6 6 5 5 4 4 3 1 2 4 6 6 6 6 7 8 9 9 8 8 8 9 9 9 8 7 9 11 12 11 12 12 11 11 11 10 11 10 7 6 10 12 12 12 10 7 6 6 6 3 1
10 11 11 10 11 12 12 11 11 10 10 9 10 11 11 10 11 13 13 12 12 12 12 13 15 17 16 13 12 12 12 11 9 8 6 5 4 3 3 4 3 3 3 4 6 7 8 8 9 9 9 10 11 10 10 10 10 9 9 8 8 9 11 12 12 12 12 11 11 11 10 10 9 7 7 8 9 9 9 10 10 8 7 6 5 3
Wind_Direction
194 201 207 212 211 207 210 214 218 226 234 230 222 221 218 227 226 214 222 197 178 209 216 215 227 224 220 214 196 188 196 205 208 206 201 192 173 165 184 192 187 191 208 203 188 182 182 182 179 178 178 180 183 183 182 182 182 184 185 182 185 184 182 183 185 188 190 191 191 190 195 197 199 203 204 206 209 208 204 200 196 195 195 193 192 197
199 213 214 212 214 214 210 215 221 224 232 236 232 231 222 224 226 211 217 205 173 202 225 216 230 228 219 222 211 191 189 201 209 207 201 197 181 171 187 198 190 180 199 205 190 182 182 181 180 177 177 179 180 182 182 183 183 184 187 184 184 184 183 185 186 188 191 192 192 191 195 199 198 201 204 205 207 207 202 200 198 196 195 195 193 195
206 221 219 211 213 218 215 212 219 223 227 233 231 236 232 220 226 218 214 220 197 183 230 229 234 236 225 228 229 210 196 195 208 213 205 196 184 177 183 191 191 185 198 205 191 183 182 181 180 177 178 180 179 181 182 183 183 185 188 188 186 185 185 186 186 189 192 192 192 192 195 199 199 199 203 206 205 203 202 200 198 196 195 194 193 194
207 218 217 214 210 214 219 213 213 220 223 229 225 225 233 219 220 223 213 224 217 188 232 241 237 240 233 232 231 228 222 203 198 209 213 201 184 184 186 181 185 192 202 207 194 183 181 182 182 179 178 180 179 180 181 182 184 185 189 190 188 188 188 187 187 188 191 192 191 193 196 200 203 202 200 205 206 203 204 201 196 197 196 193 194 196
215 212 206 213 212 210 218 215 210 216 218 224 226 223 229 224 222 228 220 223 219 202 221 241 243 238 233 233 227 226 234 221 198 199 212 210 184 179 184 177 184 199 204 207 198 183 180 182 181 180 180 180 180 181 181 182 184 185 188 189 189 190 191 190 188 187 188 189 189 193 196 199 206 208 200 202 205 202 204 203 197 197 197 195 196 198
221 213 198 207 211 210 216 216 209 214 218 220 225 227 232 233 230 233 233 233 227 211 214 226 241 240 228 235 235 227 229 222 204 197 207 213 191 176 179 180 187 200 203 205 201 185 178 180 179 179 182 182 182 182 182 183 183 184 186 188 188 189 193 192 189 186 186 187 188 191 194 196 201 206 202 201 203 201 201 205 202 199 199 198 198 200
223 217 205 204 208 208 213 218 211 211 223 223 217 221 229 238 240 236 236 238 233 227 219 215 227 242 231 228 229 228 230 224 208 198 204 210 203 187 181 184 186 193 198 202 203 190 180 178 178 180 183 185 185 182 182 182 183 184 184 186 188 189 192 193 190 186 185 187 189 192 195 197 199 202 203 201 202 202 200 204 205 201 199 200 200 201
216 215 208 201 206 209 211 217 212 206 219 228 213 212 218 228 237 237 238 238 234 241 239 227 227 237 238 229 226 222 226 230 213 194 200 207 209 201 190 188 186 189 193 194 197 194 184 180 180 182 184 186 186 181 180 181 181 183 183 184 187 189 191 192 190 187 186 187 189 193 197 199 202 203 202 200 200 203 202 204 207 203 200 199 202 203
208 214 209 200 204 212 211 213 209 204 216 229 221 219 214 219 227 231 237 240 237 241 243 238 235 238 239 234 239 233 227 228 207 182 194 209 212 210 201 193 188 189 192 189 193 193 185 183 183 183 183 184 185 182 181 181 181 181 182 184 186 188 191 192 190 187 188 190 190 194 197 200 202 204 204 201 200 202 203 203 205 204 201 198 201 203
205 210 213 208 204 213 215 210 205 206 215 223 224 225 219 218 223 224 230 235 236 240 238 233 232 240 244 226 229 239 236 227 201 182 197 209 213 211 210 207 192 186 189 187 193 193 187 188 186 183 182 183 185 184 182 181 179 180 181 183 185 188 190 191 190 188 189 192 193 196 199 200 201 201 203 204 201 201 201 202 202 202 201 200 201 204
218 203 211 219 210 212 216 207 205 211 213 214 220 220 211 217 224 222 226 230 234 237 235 232 232 238 245 231 220 226 229 223 209 200 201 202 206 199 207 221 201 185 189 188 190 192 190 190 187 184 183 183 184 183 181 181 180 179 181 182 185 187 189 190 189 188 189 193 196 199 201 201 201 201 202 203 201 199 199 202 201 201 201 202 204 205
227 207 202 216 210 207 216 211 203 208 209 209 214 207 198 207 213 218 218 220 232 235 229 229 232 238 242 233 225 227 224 220 214 205 196 195 200 194 198 216 206 187 188 190 189 190 189 189 187 186 185 183 183 182 182 184 182 180 181 182 184 186 188 188 188 189 191 193 197 200 202 202 202 201 202 202 203 200 199 201 201 200 202 204 206 206
223 218 206 203 203 201 210 212 197 197 202 204 208 202 200 199 196 209 209 210 228 234 229 226 224 233 244 238 233 237 229 221 218 209 198 195 197 194 195 207 206 190 185 189 190 188 187 189 189 188 185 183 184 183 183 184 183 182 182 182 183 186 187 187 187 190 191 194 197 200 202 203 203 203 204 204 204 203 202 202 201 201 202 203 206 207
212 219 213 199 194 199 207 209 192 191 196 199 203 199 200 199 194 203 208 213 227 227 223 225 222 229 242 236 227 233 235 229 221 210 204 204 196 188 191 201 202 191 184 187 190 188 188 188 190 189 186 185 186 185 184 185 184 183 182 182 183 185 186 186 187 189 191 194 197 200 202 203 203 204 205 205 206 207 205 205 204 204 205 205 208 209
206 212 210 202 190 190 202 213 205 192 193 199 203 204 206 212 208 205 209 213 223 225 214 215 223 229 234 237 224 224 226 226 228 214 204 210 197 178 182 201 204 194 186 185 188 190 190 188 188 190 188 187 187 186 185 185 185 184 183 183 183 184 185 186 187 188 191 194 196 199 201 203 204 204 205 206 208 209 209 209 209 208 209 210 211 212
214 215 205 203 200 190 196 208 210 199 193 194 199 208 211 215 221 223 224 224 226 233 216 204 217 230 230 239 229 223 220 213 219 218 199 202 199 176 175 193 205 201 190 185 188 190 191 188 187 190 190 189 188 187 186 185 185 185 184 183 183 183 184 185 187 188 191 193 195 197 200 202 203 203 204 206 208 209 210 211 212 212 212 213 214 214
216 220 203 198 199 199 197 199 205 207 196 185 197 211 210 211 228 238 236 240 239 237 226 205 210 217 222 222 200 205 223 209 206 211 201 197 198 183 172 183 202 208 195 186 188 189 188 188 188 190 191 190 189 189 189 187 186 186 184 183 183 183 184 185 187 188 190 192 194 197 199 200 202 203 204 206 207 209 210 211 213 214 213 214 214 214
220 221 205 195 194 197 195 196 205 212 208 195 197 203 204 211 228 241 238 232 228 231 232 218 213 208 210 220 200 197 211 210 204 206 202 195 194 188 178 182 197 207 201 190 187 187 187 187 188 191 193 192 192 191 191 189 187 186 185 184 183 184 185 187 188 188 188 190 193 196 198 199 201 204 205 207 207 207 209 211 212 213 213 213 213 214
231 230 204 193 191 188 186 195 206 210 214 220 208 193 197 210 211 215 228 227 222 224 226 226 226 219 212 215 212 202 202 207 205 202 202 199 197 199 193 187 192 201 200 193 188 185 186 188 189 191 193 194 193 192 192 190 188 187 187 186 186 186 186 187 188 189 188 189 192 195 198 199 200 203 205 206 206 205 208 211 211 212 213 213 212 212
228 237 212 184 180 180 181 196 205 199 206 220 220 199 201 217 210 204 216 226 229 228 222 223 224 226 224 216 215 206 194 201 203 198 204 204 196 197 198 191 190 196 197 193 189 185 185 190 192 192 194 195 193 192 191 189 189 190 189 188 189 188 188 188 188 188 188 191 194 195 197 198 200 202 203 204 204 204 208 210 211 212 213 212 212 211
225 232 227 175 169 182 189 199 206 196 193 205 213 204 199 208 212 211 213 216 227 234 226 228 226 216 209 206 209 201 182 193 203 198 202 209 201 192 191 192 189 192 196 194 190 187 188 191 193 193 194 194 192 191 191 191 191 192 191 191 191 190 189 189 189 188 189 192 194 195 195 198 199 201 201 202 202 204 207 209 210 212 212 212 211 210
230 231 230 185 171 197 203 197 206 205 196 196 205 207 200 199 204 209 211 206 216 234 233 240 248 210 99 112 188 197 183 181 199 204 198 203 210 201 190 191 188 188 195 196 193 192 192 193 193 192 191 191 191 191 193 194 193 193 193 192 192 191 191 191 190 190 190 191 194 195 195 197 199 199 200 201 202 204 206 207 209 210 210 211 211 210
242 273 243 210 187 207 209 198 204 211 205 200 204 210 204 200 204 209 210 200 204 223 231 240 250 166 88 93 122 147 173 177 185 203 201 191 202 207 197 190 188 189 194 198 199 197 193 194 193 187 186 190 192 192 193 195 194 195 195 193 192 194 194 193 192 191 190 190 192 194 195 196 198 198 200 201 203 205 207 207 208 208 208 210 210 209
208 266 247 229 199 203 206 199 200 208 211 204 203 210 210 207 208 211 215 206 202 211 210 219 235 188 107 106 113 111 175 209 187 187 204 198 191 195 196 191 187 185 188 196 203 200 193 189 186 183 184 188 192 194 194 196 197 197 196 194 194 196 196 194 193 192 190 190 192 193 194 196 197 198 200 202 204 206 208 209 209 208 207 209 212 211
238 220 223 231 210 196 195 196 194 201 212 211 201 204 210 211 210 210 214 216 215 210 203 207 222 191 117 119 157 176 186 200 183 174 187 195 187 184 188 186 168 157 168 189 202 202 192 179 173 179 182 183 192 196 196 197 198 198 198 197 197 197 195 194 193 193 191 192 193 193 194 196 197 199 201 203 206 207 210 211 211 210 209 209 212 213
271 223 212 219 214 198 191 196 194 194 203 211 206 203 206 210 211 208 207 215 217 208 207 214 205 131 116 127 151 162 165 162 158 163 165 170 180 177 161 146 128 128 160 189 198 198 190 172 169 177 181 185 194 198 197 198 199 200 200 201 201 198 195 194 194 193 192 193 193 194 195 195 197 200 202 204 207 209 210 212 212 211 210 210 211 212
280 243 224 227 227 215 191 272 282 219 203 205 207 204 202 207 211 210 208 212 211 205 210 223 218 143 133 145 155 155 166 167 152 148 141 143 159 144 113 117 139 154 173 186 189 189 185 178 178 181 186 191 196 199 200 200 201 202 202 202 202 200 196 195 194 193 192 193 194 195 195 196 197 199 201 203 206 208 209 211 212 213 212 211 210 211
283 250 230 233 238 243 304 336 329 288 217 209 209 206 201 204 209 211 214 210 200 208 211 205 218 211 148 147 166 166 157 148 143 145 129 126 141 136 119 136 163 165 170 175 176 179 183 186 187 188 190 195 198 200 201 202 202 203 203 202 202 202 199 196 194 193 193 193 195 196 196 196 197 198 200 203 204 206 208 210 211 213 213 211 210 211
282 247 233 233 235 242 257 287 303 290 246 232 227 214 205 204 208 210 215 211 201 215 222 187 199 221 192 145 153 159 149 142 146 135 112 119 133 122 120 157 168 158 156 160 163 172 182 188 191 192 193 196 199 200 201 203 204 203 203 202 202 203 202 197 193 193 193 194 196 196 195 195 197 198 200 201 202 204 206 209 210 212 212 212 211 211
293 255 273 250 236 239 242 246 268 272 259 269 260 229 211 207 208 208 213 214 207 214 223 195 189 211 217 188 160 158 164 171 170 71 99 148 148 124 131 175 168 152 147 152 165 174 181 187 190 191 192 195 200 201 201 203 204 203 203 202 201 203 203 198 193 193 195 196 196 195 192 193 196 197 198 199 200 201 203 206 208 209 210 212 212 212
310 323 335 299 252 243 238 230 245 258 260 262 257 245 231 218 210 206 208 212 210 210 214 208 195 200 214 223 209 183 181 230 277 278 260 237 208 152 181 210 183 156 149 154 166 170 174 183 186 187 192 195 198 201 202 203 203 203 203 202 200 200 201 199 196 195 197 198 195 192 191 192 195 196 197 198 198 199 200 203 205 207 209 211 212 212
310 316 310 267 246 243 233 221 225 241 257 251 240 236 241 230 217 210 207 209 210 210 210 211 210 202 194 207 227 234 239 259 260 256 259 263 267 263 255 256 260 255 242 196 172 164 175 190 188 187 194 198 197 199 202 201 201 202 204 203 200 198 199 201 199 197 197 198 194 192 192 192 193 195 197 198 198 198 198 200 203 205 206 208 209 210
304 313 288 238 237 237 225 219 224 231 240 241 232 226 229 229 228 223 213 213 219 217 213 212 211 206 180 190 218 228 227 236 242 245 250 259 269 277 276 272 272 272 268 263 248 215 206 211 205 196 199 201 200 200 201 200 200 201 203 201 197 196 199 201 200 196 196 196 194 193 192 191 191 194 196 196 197 198 198 199 202 203 204 206 207 208
287 288 280 271 256 224 198 192 220 228 227 226 218 223 231 230 231 230 220 214 217 220 224 229 224 213 203 210 227 232 234 237 241 252 261 266 272 275 273 270 270 269 268 273 274 261 247 250 251 226 220 217 212 206 202 201 202 202 201 199 196 196 198 201 201 196 193 194 195 194 192 191 191 192 193 193 193 195 198 200 203 204 206 206 206 208
281 264 242 258 281 240 182 159 204 227 234 241 222 222 234 234 230 235 238 233 227 225 228 235 238 235 231 235 239 241 244 238 237 256 265 265 265 266 269 268 268 273 276 276 282 291 301 308 280 261 252 237 225 214 205 203 203 200 199 199 198 197 197 199 200 197 193 193 195 194 192 191 192 192 191 191 191 194 198 201 203 204 206 207 208 209
267 258 236 229 262 268 226 198 205 223 266 250 215 206 243 238 225 225 233 234 233 234 232 233 236 237 237 237 237 241 249 252 254 256 262 270 270 267 270 271 270 274 277 277 285 324 36 338 285 292 288 268 240 224 215 209 204 200 198 199 200 198 196 197 199 199 195 194 195 194 192 191 192 192 192 191 192 195 199 202 202 202 204 207 210 211
240 248 249 233 226 243 243 219 212 226 252 209 196 178 187 230 222 225 232 230 228 233 237 235 234 235 234 231 230 235 241 247 254 255 255 258 257 254 259 263 267 269 271 281 307 19 64 319 279 274 268 261 250 240 234 223 210 202 199 199 200 199 196 196 199 200 198 195 194 193 191 191 192 192 193 193 194 198 201 202 202 201 203 206 210 213
222 228 241 236 223 227 235 226 223 230 230 212 196 175 160 205 215 219 236 234 221 222 229 234 233 234 240 242 244 249 246 241 242 246 250 252 260 269 260 247 245 263 290 341 353 347 338 310 277 266 264 260 255 248 242 233 216 203 198 199 200 199 197 198 200 199 197 196 193 191 190 192 193 193 194 195 197 200 201 201 202 202 202 205 210 214
213 218 232 236 229 224 225 225 226 225 218 210 199 180 173 193 180 173 211 220 199 192 205 220 228 232 244 263 276 270 256 245 243 251 349 340 345 346 324 285 191 42 33 23 350 328 326 324 309 285 269 260 254 248 240 232 217 204 200 200 200 200 201 203 202 199 196 194 192 191 191 191 193 194 195 197 199 201 201 201 202 203 203 206 211 215
207 204 215 226 226 225 226 226 227 228 229 231 181 158 158 171 180 197 204 181 128 112 123 181 217 237 279 313 299 262 245 246 256 311 14 356 346 5 13 22 36 31 13 354 349 348 330 311 299 281 268 260 252 241 231 224 214 204 201 200 201 204 205 204 202 197 195 193 190 190 191 191 192 194 197 199 199 200 201 201 202 203 204 207 211 214
204 202 207 218 223 226 228 228 226 232 246 249 143 113 116 154 187 204 203 128 101 93 78 90 123 36 18 4 312 267 260 270 284 314 340 333 334 2 12 11 15 6 348 341 349 345 314 294 289 282 278 279 266 243 225 215 209 203 199 198 203 209 208 203 198 195 193 191 190 191 191 192 193 194 197 199 198 199 202 202 203 204 205 207 210 213
200 203 206 213 218 221 223 226 229 229 230 226 192 152 154 180 193 204 290 357 90 85 63 41 34 34 16 0 349 316 304 303 302 308 316 319 333 351 351 352 357 355 354 345 335 326 301 291 296 292 286 280 257 241 225 214 207 199 194 198 206 211 208 199 193 191 190 189 190 192 192 193 193 193 196 198 197 198 201 202 203 204 204 207 210 213
211 209 208 207 211 219 220 222 227 222 201 217 220 194 182 193 330 359 330 297 334 40 35 15 16 24 4 350 349 332 317 309 302 303 306 306 315 323 326 338 342 334 331 323 320 328 308 293 301 320 327 326 282 242 225 214 204 193 191 199 206 208 204 196 189 186 186 186 188 191 192 193 192 191 193 195 196 197 198 199 201 202 203 205 209 212
241 225 220 204 197 210 217 213 218 232 47 321 267 236 244 345 358 355 334 314 319 342 359 355 354 1 352 337 334 329 319 309 301 303 302 296 301 308 311 321 330 327 320 313 320 333 320 301 305 321 335 339 319 253 225 213 199 188 188 195 199 199 196 188 181 179 181 184 187 190 191 191 190 188 189 190 191 193 195 196 198 200 202 204 208 212
242 245 262 245 234 250 253 254 316 345 345 327 319 336 351 344 341 346 344 327 313 327 346 338 331 339 340 328 322 320 316 312 307 306 304 301 301 305 313 323 328 326 317 309 314 320 312 307 319 352 40 16 349 254 203 201 192 184 177 170 175 185 184 175 171 172 176 181 184 186 188 187 187 187 187 186 187 191 193 193 195 198 200 206 214 220
269 289 298 288 285 292 287 273 275 282 294 317 325 328 331 328 330 342 347 339 328 329 331 328 330 333 328 321 317 314 314 316 309 301 301 304 302 303 315 318 316 307 292 283 293 308 303 299 53 90 91 79 60 92 131 161 167 164 156 145 156 173 174 168 166 168 173 177 179 180 182 182 182 182 183 183 186 190 195 198 200 202 203 208 216 223
239 238 242 255 271 286 284 264 259 275 301 318 317 312 311 312 321 333 335 330 327 324 323 327 329 326 322 318 316 313 312 312 307 300 299 297 295 300 306 302 295 287 278 278 321 307 276 108 101 98 90 82 80 97 117 128 131 140 147 152 164 171 170 169 168 168 171 172 172 174 176 177 178 178 179 183 187 190 196 201 203 203 203 207 214 219
242 230 237 247 251 253 259 267 277 290 298 300 300 298 298 300 309 323 329 329 325 322 321 322 318 316 318 315 313 313 311 307 304 301 294 289 286 291 294 289 282 273 258 244 256 232 135 89 85 88 81 69 62 73 98 115 125 140 151 157 164 165 163 165 167 165 166 165 164 166 169 171 173 172 174 180 185 187 192 199 204 205 205 209 215 220
279 280 251 248 248 245 245 250 262 277 283 281 280 280 284 296 315 328 332 330 328 327 326 322 315 309 307 307 308 306 300 298 300 297 289 285 279 274 276 274 269 264 244 190 147 110 98 93 91 92 90 86 76 73 86 100 109 116 116 119 136 144 145 147 150 150 151 150 149 153 156 160 165 169 177 178 164 120 96 126 171 182 174 167 179 199
255 248 244 243 244 243 240 237 243 257 266 266 267 277 293 321 335 331 324 322 323 324 323 319 314 307 300 300 303 299 293 295 298 291 282 275 266 262 266 265 253 240 198 149 129 111 103 104 101 92 91 93 86 78 79 81 81 87 94 99 106 114 117 119 123 128 130 128 129 132 134 144 151 149 158 160 140 105 86 88 99 110 105 96 106 143
247 250 248 245 245 249 251 249 246 248 256 267 278 288 302 320 321 313 311 312 312 311 309 309 309 304 297 293 294 295 295 293 286 279 275 272 259 242 242 242 225 190 168 153 135 124 116 110 105 99 96 94 91 85 78 72 69 72 83 96 107 113 118 122 123 122 119 116 118 119 119 130 137 114 86 99 112 115 114 103 89 82 81 81 86 85
Height
725 737 739 734 730 726 724 721 722 721 715 714 717 720 724 725 720 710 705 694 693 715 721 717 722 719 715 714 710 710 710 714 718 717 719 720 728 739 743 742 743 749 751 745 741 743 746 750 753 758 761 766 771 774 779 782 785 789 792 795 798 800 803 806 808 811 813 815 816 818 819 821 822 824 825 827 828 829 830 832 833 834 835 837 838 839
724 736 730 721 720 715 716 717 717 719 717 715 717 719 719 720 716 705 703 696 692 714 720 712 718 717 710 708 701 701 708 714 714 716 718 718 724 734 740 743 741 742 746 745 742 740 743 748 751 755 759 763 767 771 776 779 783 787 790 793 796 798 801 803 806 809 811 812 814 815 817 819 820 822 823 825 826 827 829 830 832 833 834 836 837 838
731 731 720 712 711 710 711 713 717 719 719 719 718 723 723 714 712 705 699 694 692 712 723 716 720 717 704 699 695 695 702 708 708 708 711 713 721 730 737 742 740 740 744 743 740 738 740 744 748 752 756 760 764 768 773 777 781 785 788 792 794 797 799 801 804 806 809 810 812 814 816 818 819 820 822 823 824 826 827 829 830 831 833 834 836 837
731 721 710 705 705 710 714 711 715 720 719 721 719 726 726 711 716 718 705 697 692 704 719 718 719 715 703 700 698 694 692 694 699 702 703 705 715 724 729 734 736 739 745 745 740 735 736 741 745 749 753 757 761 765 769 774 778 782 785 789 792 795 797 799 802 804 807 809 811 814 815 817 818 819 820 822 823 825 826 827 828 830 831 833 834 835
718 706 698 702 704 709 716 712 715 722 723 721 716 720 721 710 713 714 703 699 696 701 711 718 728 722 709 708 703 692 688 688 692 700 704 702 707 715 720 726 732 735 741 745 739 731 730 736 740 745 750 754 757 761 765 769 773 777 781 786 790 793 795 797 800 802 805 808 810 812 814 816 817 818 819 820 821 822 824 825 826 828 829 831 832 833
707 694 691 702 705 706 714 714 713 719 724 722 714 711 712 710 708 705 703 703 708 715 710 717 745 740 713 710 707 696 695 694 693 700 706 704 703 712 720 725 728 730 734 738 733 726 725 730 736 743 748 751 754 757 761 765 769 774 778 782 786 790 793 795 797 800 803 805 808 810 811 813 814 815 816 817 818 820 821 823 824 826 828 829 830 832
698 688 688 699 704 706 712 713 708 710 722 724 710 703 707 709 708 708 708 710 721 727 709 706 740 746 721 711 705 698 698 696 692 697 702 703 702 706 715 719 721 724 726 729 728 723 722 726 732 738 743 746 750 753 758 762 766 770 775 779 783 786 790 793 795 797 800 803 805 807 808 810 811 812 813 815 816 818 819 821 822 824 826 827 828 830
691 690 691 696 702 707 711 712 703 702 720 720 699 696 706 710 712 711 711 714 716 717 710 701 715 734 729 711 694 691 698 697 691 695 699 700 700 701 705 709 712 716 717 721 725 721 719 721 725 731 737 741 745 750 754 758 762 767 771 775 779 783 786 789 792 794 797 800 802 804 806 807 809 810 811 813 815 816 817 819 820 821 823 825 826 828
684 692 693 694 703 706 703 702 695 698 715 709 692 693 700 704 710 710 712 716 712 719 730 714 705 726 731 708 692 689 696 698 692 695 701 700 698 698 699 700 703 707 707 711 716 715 714 716 720 725 731 737 742 746 750 753 758 763 767 772 775 779 783 786 789 791 794 797 799 801 803 805 807 808 810 811 813 815 816 817 818 819 821 823 824 826
678 681 681 686 698 700 693 689 687 696 706 698 691 693 695 699 705 708 714 717 718 730 740 722 709 727 730 710 702 701 699 696 690 692 699 698 696 697 698 698 696 698 700 704 708 709 710 712 716 722 728 734 738 742 747 751 755 759 764 768 772 775 779 782 785 788 790 794 796 798 800 802 804 806 807 809 811 812 814 815 816 818 819 820 822 823
669 667 671 676 683 685 683 682 683 690 693 692 694 699 705 708 708 711 713 715 730 738 731 717 707 720 729 713 700 698 693 687 687 691 694 693 695 697 701 700 693 693 696 699 702 704 706 710 715 721 725 730 735 739 745 748 751 755 759 763 767 771 775 778 781 784 787 790 793 795 797 799 801 803 805 806 808 809 811 813 814 816 817 818 820 821
672 671 673 670 669 674 681 683 681 682 684 691 699 705 718 724 720 724 722 724 742 741 722 709 703 713 726 712 691 683 676 673 678 685 688 692 694 694 699 699 690 689 692 694 698 701 705 710 714 717 722 726 731 735 740 744 747 751 755 759 763 767 771 774 776 780 783 786 789 791 794 796 797 800 802 803 805 806 808 810 812 813 815 816 817 819
679 674 670 668 665 669 683 690 686 685 686 694 701 709 727 736 738 745 741 735 741 732 712 702 704 713 712 697 684 676 669 665 666 669 675 682 687 687 691 694 688 685 688 691 695 698 702 707 709 712 717 722 726 730 734 739 743 746 750 754 758 762 765 768 772 775 779 782 785 788 790 792 795 797 798 800 802 804 805 807 809 810 812 813 815 816
688 679 666 670 670 665 677 689 694 694 692 697 702 709 726 735 747 757 747 737 735 722 705 696 702 713 705 686 675 671 665 659 656 658 663 667 673 679 683 686 685 681 683 688 691 694 698 701 705 708 712 717 720 724 728 733 737 741 745 749 752 756 760 764 767 770 774 777 780 783 786 789 791 793 795 797 799 801 803 804 806 807 809 810 811 813
694 691 669 667 671 666 672 677 679 684 689 692 689 697 714 717 728 742 735 732 731 717 704 700 704 710 705 683 662 658 657 654 652 652 654 657 658 667 677 681 681 678 679 684 687 690 693 695 700 704 708 712 715 719 723 728 732 736 740 743 747 751 755 759 763 766 769 772 776 779 782 785 787 789 791 793 796 798 799 801 803 805 806 807 809 810
683 681 658 654 657 659 670 668 661 673 688 688 680 693 706 697 699 711 710 707 709 710 705 701 701 692 681 668 652 651 652 650 654 651 651 657 655 660 674 679 679 677 676 679 683 686 688 690 695 699 703 708 711 715 718 722 726 730 734 738 741 746 750 754 758 761 764 768 772 775 778 781 783 786 788 790 792 794 796 798 800 801 803 804 806 807
676 673 649 648 654 652 662 663 657 667 682 684 686 693 688 676 683 701 706 694 696 714 705 690 694 686 676 671 657 656 658 652 655 655 654 659 657 660 671 675 676 675 672 674 678 681 684 687 691 695 698 703 707 710 713 715 720 723 728 733 737 741 745 749 753 756 760 764 767 770 773 777 779 781 783 785 787 790 793 795 797 798 800 801 803 805
661 667 646 643 658 653 648 657 658 654 661 676 688 684 673 675 681 693 711 709 710 725 707 685 691 692 694 691 667 661 669 660 655 656 655 658 659 662 667 669 670 670 668 670 672 676 680 682 687 690 694 698 701 705 708 711 715 719 723 727 731 736 740 743 747 751 755 758 762 766 769 772 774 777 779 781 784 787 789 791 793 795 796 798 800 801
648 665 650 636 653 654 644 659 670 656 649 660 668 663 672 694 699 697 711 717 718 725 713 694 689 687 689 687 669 664 669 663 657 655 655 657 659 660 661 662 664 665 666 667 668 672 676 678 681 685 688 692 696 701 705 709 714 717 720 723 726 730 733 738 742 746 750 754 757 761 763 766 769 772 775 778 780 783 785 787 789 791 792 794 796 798
645 663 658 634 639 652 653 663 673 668 657 655 657 658 666 681 689 692 698 702 707 716 713 704 697 687 674 663 659 660 658 658 659 657 656 654 652 654 655 655 658 661 662 662 664 668 671 673 675 678 682 686 691 697 701 706 710 712 716 719 722 726 729 734 738 741 745 749 752 755 758 762 765 768 771 773 776 779 780 782 784 787 789 791 793 795
645 658 662 642 637 653 661 659 658 661 662 664 668 670 670 671 673 680 685 684 693 705 707 705 701 681 652 639 644 649 648 650 652 653 655 651 646 647 648 649 653 656 657 657 659 662 665 667 669 672 678 683 688 694 698 701 704 708 712 715 718 722 725 729 733 736 739 743 746 750 753 756 759 763 766 769 772 774 776 778 781 783 785 787 789 791
652 657 659 652 652 658 654 644 641 644 649 658 666 665 666 670 675 689 695 682 680 692 695 698 700 675 642 632 638 641 642 645 645 646 649 648 644 643 643 645 648 651 653 653 654 657 660 662 664 669 675 680 684 689 692 695 699 703 706 709 713 717 720 723 726 729 733 737 741 744 747 751 755 758 761 764 767 769 772 774 776 779 782 784 786 787
653 659 658 651 651 651 642 633 634 636 635 645 655 653 654 661 668 687 699 687 681 686 681 686 697 677 644 635 639 639 639 639 640 643 644 644 642 640 638 640 642 646 649 649 651 653 656 659 662 665 671 676 679 682 687 691 694 697 700 703 708 711 713 716 720 723 727 731 735 739 743 747 750 753 757 759 762 764 767 770 772 775 777 779 782 784
657 666 666 655 644 638 634 628 629 631 634 643 650 646 648 654 656 665 673 672 679 686 682 692 704 680 648 639 641 641 641 639 638 640 642 642 640 638 638 637 639 643 645 647 648 649 652 656 659 663 668 672 676 679 683 686 689 692 695 698 701 703 707 711 715 719 723 726 729 734 738 741 745 748 751 754 757 759 762 765 768 770 772 775 777 779
668 668 669 670 663 654 652 648 644 641 639 641 644 644 645 647 650 656 658 664 678 679 676 693 702 678 652 645 644 643 643 640 638 637 639 641 640 639 638 637 638 641 645 648 648 647 649 652 657 662 665 669 673 675 678 681 685 687 690 693 695 698 703 707 711 715 718 721 725 729 732 736 739 742 745 748 751 754 757 761 763 766 768 770 773 775
675 667 664 673 671 666 669 666 654 648 644 640 639 641 644 645 649 657 663 674 685 678 670 681 685 671 657 651 649 646 644 644 641 636 636 638 638 638 638 640 642 646 650 651 651 651 651 653 657 660 662 665 669 671 674 678 681 684 686 689 691 695 699 703 706 710 713 717 720 723 726 730 733 736 739 743 746 749 752 755 758 760 763 765 768 771
676 668 661 663 657 655 665 662 645 639 643 645 642 640 642 644 644 651 664 676 678 677 678 673 668 669 665 659 657 653 649 649 645 640 639 640 640 639 641 645 647 649 652 652 652 653 654 655 658 659 661 663 665 669 672 674 678 681 683 686 689 692 696 699 702 705 709 712 716 719 721 724 727 731 734 737 741 744 747 750 753 755 758 760 763 765
682 676 665 661 654 649 658 660 648 641 642 642 641 639 640 643 644 650 662 664 663 677 686 670 661 670 667 659 659 654 648 649 647 643 642 643 643 642 644 648 649 649 651 652 654 655 656 658 659 659 661 662 664 667 669 672 675 677 680 683 686 689 692 695 699 702 706 709 712 714 716 720 723 726 729 732 736 739 742 745 748 750 753 756 758 760
688 682 667 662 658 652 655 659 655 650 644 641 641 638 637 641 644 649 654 652 655 672 677 663 663 671 662 654 655 651 646 648 646 642 640 642 643 644 646 648 648 649 651 653 655 656 657 658 658 659 660 660 662 665 666 669 672 674 677 681 683 686 688 691 695 698 702 705 707 710 713 717 720 722 725 728 731 735 737 740 744 746 750 752 754 756
690 685 672 666 663 658 658 660 659 655 652 649 644 636 632 634 637 643 647 645 649 660 659 655 664 667 655 647 647 644 642 642 641 641 642 643 644 646 648 648 644 645 649 652 654 654 655 656 656 658 659 659 661 662 664 667 669 671 675 677 681 684 685 688 692 695 698 701 703 707 710 714 717 719 722 725 727 730 733 737 740 743 745 748 750 752
692 690 681 677 677 671 663 662 662 659 658 657 651 640 635 634 634 638 643 642 647 656 654 654 666 667 651 641 640 639 640 642 645 648 648 646 644 646 648 647 643 643 645 646 649 651 652 653 654 656 657 658 659 660 662 664 667 669 672 674 677 680 683 686 689 691 695 697 700 704 707 710 713 716 719 721 724 727 730 733 736 739 741 744 746 749
697 696 687 686 693 684 667 665 666 661 661 662 656 650 647 644 638 636 636 638 644 653 655 658 667 666 651 642 643 643 644 649 653 653 651 649 647 648 650 649 647 646 644 644 646 648 650 651 652 653 654 654 655 657 659 661 664 667 669 671 674 677 680 683 684 687 691 694 698 701 703 706 710 713 716 719 722 724 727 730 733 735 738 740 742 745
703 703 692 688 696 686 667 663 663 666 677 674 658 651 651 648 645 642 640 640 640 645 655 662 661 654 646 646 651 651 650 653 654 651 650 650 649 650 651 650 649 648 645 645 644 645 646 646 646 648 649 649 651 653 656 658 661 663 664 668 671 674 676 678 680 684 688 691 694 696 698 702 705 708 712 715 719 722 725 727 730 731 734 736 738 741
707 707 697 690 693 685 667 663 670 680 687 672 649 644 647 648 651 652 650 647 645 645 650 654 651 647 647 651 654 654 652 651 649 647 645 646 649 650 650 648 648 646 644 644 643 641 641 641 643 644 645 647 649 650 653 655 657 659 662 665 668 670 672 675 677 680 683 687 690 692 695 698 700 703 707 711 715 719 721 724 726 728 730 733 735 737
714 709 700 695 695 683 665 673 696 699 678 654 641 640 642 643 646 651 650 646 644 645 647 650 650 648 649 649 649 649 649 646 645 645 644 642 643 645 646 645 643 643 643 643 642 641 641 641 643 644 644 646 647 648 650 652 654 657 660 662 665 667 669 672 674 676 679 682 685 688 691 694 697 700 704 707 711 713 716 719 721 724 727 729 731 733
716 710 701 697 699 693 680 685 702 694 665 649 647 644 644 646 647 653 659 652 644 644 646 650 650 647 646 648 646 646 646 645 645 646 643 640 638 639 641 641 639 639 640 639 640 641 642 642 643 644 645 645 646 647 648 649 651 654 656 659 661 663 666 669 671 673 675 677 680 684 687 691 695 698 701 705 707 709 712 714 716 720 723 726 728 730
713 714 709 704 700 698 695 690 686 680 672 664 658 652 651 653 650 653 662 656 643 640 644 646 647 646 644 645 645 643 644 648 653 650 641 637 635 634 635 634 633 634 634 634 636 639 641 643 643 644 645 646 646 646 646 647 648 650 653 656 658 660 663 665 667 668 671 674 677 680 684 688 691 695 698 701 703 705 707 710 713 716 719 722 724 726
709 712 712 711 703 695 698 696 687 690 689 673 658 650 649 650 646 648 661 660 645 638 641 643 647 648 646 646 645 644 646 655 663 655 639 633 631 630 629 627 626 629 631 633 636 638 640 642 643 644 645 644 645 645 644 645 646 647 650 653 654 657 660 661 662 664 667 671 674 677 680 684 687 690 693 696 698 700 703 706 710 712 715 717 719 721
708 709 709 713 709 700 703 704 697 693 683 663 651 648 648 649 646 651 671 672 649 638 642 645 648 651 650 651 651 650 657 668 666 651 638 634 634 633 631 627 626 630 634 636 639 640 641 643 643 644 644 643 642 643 643 644 644 645 648 650 652 654 655 656 658 661 665 668 672 675 678 680 684 687 689 692 694 697 701 703 706 708 711 713 715 717
708 710 711 715 712 704 704 703 694 684 671 656 650 649 648 648 650 667 688 680 654 645 649 649 651 654 654 657 658 658 664 669 660 647 639 638 638 637 637 635 635 638 639 639 641 642 643 643 643 642 642 640 640 641 642 642 643 644 645 648 650 650 651 654 657 660 663 667 669 672 675 677 680 683 686 689 692 695 698 700 703 705 707 709 711 713
708 709 710 712 710 707 707 704 693 679 665 655 654 654 652 654 664 681 689 673 655 654 654 651 654 657 656 659 662 661 659 655 648 643 640 640 641 641 641 640 640 641 641 642 643 644 644 643 642 641 640 640 640 640 640 640 641 642 644 646 648 648 649 653 656 658 661 664 666 670 672 674 677 680 683 686 689 692 694 696 699 701 703 706 708 710
704 705 707 708 705 702 701 701 699 687 665 653 656 657 656 667 682 683 673 661 655 656 655 654 656 657 658 660 661 660 656 649 645 645 643 642 644 645 644 643 643 644 644 644 645 645 645 643 641 640 639 639 640 640 639 639 640 641 643 645 646 647 649 652 654 656 659 661 664 667 669 672 675 677 680 683 686 689 691 693 696 698 700 702 704 706
697 698 700 700 699 699 699 701 705 698 672 655 660 661 659 670 682 676 665 660 656 653 656 658 657 658 661 662 661 660 658 653 651 649 647 645 645 646 646 646 647 647 646 645 645 645 644 643 642 641 640 640 640 639 639 639 640 641 643 644 645 647 649 650 652 654 656 659 662 664 667 670 672 675 677 680 683 686 689 691 693 695 697 699 701 703
701 698 696 689 687 694 698 694 692 689 673 662 666 668 666 669 672 670 668 666 659 656 659 662 660 659 661 663 663 662 660 657 654 651 649 648 646 646 647 646 648 649 647 646 645 645 645 644 643 642 642 641 640 640 640 640 640 641 643 644 645 647 648 650 651 653 655 658 660 663 665 668 670 673 675 678 681 684 686 689 691 693 695 697 698 700
703 699 699 695 688 687 689 684 680 680 676 670 669 670 671 671 669 668 670 669 665 662 663 664 664 662 661 662 663 662 660 658 655 652 650 649 647 647 648 648 648 649 649 647 647 646 645 644 643 643 642 642 642 641 640 641 642 642 643 643 645 647 648 649 651 652 654 657 659 661 664 666 668 671 673 676 679 681 684 686 688 690 692 694 696 697
699 699 703 703 696 690 687 683 680 680 678 675 674 674 674 673 669 668 670 671 670 667 664 664 664 663 662 662 662 661 661 659 656 654 652 651 649 648 649 650 650 650 650 648 647 647 646 644 643 643 642 643 643 642 641 642 643 643 644 645 646 648 649 650 651 652 654 656 658 660 662 664 667 669 672 675 677 680 682 684 686 688 690 692 693 695
696 698 701 700 698 699 695 684 678 679 680 680 681 680 676 674 672 670 671 672 671 668 665 663 662 661 661 660 660 661 660 657 657 656 653 652 652 650 650 651 651 650 650 649 648 648 646 645 644 644 644 644 645 644 644 645 645 646 647 647 647 649 650 650 651 652 654 655 657 659 661 663 665 668 671 674 676 678 681 682 684 685 687 689 690 691
695 697 699 697 696 700 697 686 679 680 681 681 682 681 678 677 674 672 673 672 670 668 666 664 663 662 662 661 660 660 659 657 657 656 654 654 654 653 652 653 652 651 650 650 649 649 648 647 647 647 647 647 647 647 647 647 647 648 648 648 648 649 650 651 652 653 654 655 656 658 660 662 664 666 669 672 674 675 677 678 680 682 684 686 687 688
699 702 701 698 695 694 692 687 685 686 684 681 680 679 677 676 676 676 677 676 674 672 671 668 666 664 663 663 662 661 661 659 656 655 655 655 654 654 654 653 652 652 652 651 651 650 650 650 651 650 650 650 650 650 649 649 649 650 650 650 650 650 650 651 652 652 654 655 656 658 660 662 664 665 666 669 672 674 675 676 678 680 682 684 685 686
701 702 698 698 699 694 687 684 686 689 687 680 677 677 677 678 680 681 680 680 679 679 678 675 672 667 663 662 662 663 662 660 657 656 656 655 654 655 655 654 653 653 653 653 653 652 653 653 653 652 652 652 652 652 652 651 651 652 652 652 652 651 652 653 653 654 655 656 658 659 660 662 664 665 666 667 671 674 676 678 679 681 682 684 685 686
697 696 693 696 697 689 683 681 682 684 684 680 678 680 680 681 683 684 683 682 681 680 680 679 677 673 667 663 662 663 662 660 658 657 657 656 655 655 655 655 655 655 655 655 654 654 655 655 655 655 655 654 654 654 654 654 654 654 654 654 654 654 654 655 655 656 657 658 660 661 662 663 665 667 667 669 671 675 677 679 681 682 683 684 685 687